Flag for Slovakia Weather past 2 weeks in Košice, Slovakia

Now
57 °F

Light rain. Partly sunny.


Feels Like: 54 °F
Forecast: 57 / 69 °F
Wind: 16 mph from Northeast

Location: Kosice - Barca

Current Time: May 23, 2015 at 6:52:09 PM

Latest Report: May 23, 2015 at 6:30 PM


Visibility: N/A

Pressure: 29.92 "Hg

Humidity: 88%

Dew point: 54 °F

Location of KošiceLocation

Historic Weather in Košice — Graph

°F

Košice temperature yesterday

Maximum temperature yesterday: 57 °F (at 8:30 AM)
Minimum temperature yesterday: 54 °F (at 12:30 AM)
Average temperature yesterday: 56 °F

Past Weeks' High & Low Weather Summary

 TemperatureHumidityPressure
High79 °F (May 19, 3:30 PM)100% (May 10, 2:00 AM)30.33 "Hg (May 10, 2:00 AM)
Low37 °F (May 12, 2:30 AM)27% (May 12, 4:30 PM)29.71 "Hg (May 14, 3:30 PM)
Average58 °F68%30.02 "Hg
* Reported May 8 6:00 PM — May 23 6:00 PM, Košice, Weather by CustomWeather, © 2015

Note: Actual official high and low records may vary slightly from our data, if they occured in-between our weather recording intervals... More about our weather records

Advertising

Košice weather history for previous 24 hours

 ConditionsComfort  
Time TempWeatherWind HumidityBarometerVisibility
6:00 PM
Sat, May 23
57 °FLight rain. Partly sunny.12 mph94%29.92 "HgN/A
5:30 PM59 °FLight rain. Partly sunny.8 mph88%29.92 "HgN/A
5:00 PM59 °FLight rain. Partly sunny.7 mph88%29.92 "HgN/A
4:30 PM61 °FPartly sunny.5 mph83%29.92 "HgN/A
4:00 PM63 °FLight rain. Partly sunny.8 mph77%29.92 "HgN/A
3:30 PM64 °FPartly sunny.12 mph68%29.92 "HgN/A
3:00 PM66 °FPartly sunny.10 mph68%29.92 "HgN/A
2:30 PM66 °FScattered clouds.9 mph68%29.92 "HgN/A
2:00 PM68 °FScattered clouds.9 mph64%29.89 "HgN/A
1:30 PM68 °FSunny.10 mph64%29.89 "Hg10 mi
1:00 PM70 °FSunny.13 mph60%29.89 "Hg10 mi
12:30 PM68 °FSunny.13 mph60%29.92 "Hg10 mi
12:00 PM68 °FSunny.14 mph60%29.89 "Hg10 mi
11:30 AM66 °FSunny.18 mph64%29.89 "Hg10 mi
11:00 AM64 °FSunny.17 mph68%29.89 "Hg10 mi
10:30 AM64 °FSunny.17 mph64%29.89 "Hg10 mi
10:00 AM63 °FSunny.15 mph68%29.92 "Hg10 mi
9:30 AM63 °FPassing clouds.17 mph68%29.92 "HgN/A
9:00 AM61 °FPassing clouds.16 mph68%29.92 "HgN/A
8:30 AM59 °FScattered clouds.17 mph68%29.92 "HgN/A
8:00 AM57 °FScattered clouds.15 mph72%29.92 "HgN/A
7:30 AM55 °FPassing clouds.15 mph77%29.92 "HgN/A
7:00 AM55 °FScattered clouds.20 mph77%29.92 "HgN/A
6:30 AM55 °FPartly sunny.15 mph77%29.92 "HgN/A
6:00 AM54 °FSprinkles. Broken clouds.16 mph82%29.95 "HgN/A
5:30 AM55 °FPassing clouds.21 mph72%29.95 "HgN/A
5:00 AM54 °FClear.18 mph77%29.95 "Hg10 mi
4:30 AM54 °FClear.17 mph77%29.95 "Hg10 mi
4:00 AM54 °FClear.17 mph77%29.98 "Hg10 mi
3:30 AM54 °FClear.18 mph77%29.98 "Hg10 mi
3:00 AM54 °FClear.20 mph77%29.98 "Hg10 mi
2:30 AM54 °FClear.20 mph77%30.01 "Hg10 mi
2:00 AM54 °FClear.17 mph77%30.01 "Hg10 mi
1:30 AM54 °FPassing clouds.18 mph77%30.01 "HgN/A
1:00 AM54 °FPassing clouds.18 mph77%30.01 "HgN/A
12:30 AM54 °FPassing clouds.18 mph77%30.04 "HgN/A
12:00 AM54 °FPassing clouds.21 mph77%30.04 "HgN/A
11:30 PM
Fri, May 22
54 °FPassing clouds.21 mph77%30.04 "HgN/A
11:00 PM54 °FPassing clouds.18 mph77%30.07 "HgN/A
10:30 PM54 °FPassing clouds.18 mph77%30.07 "HgN/A
10:00 PM54 °FPassing clouds.22 mph77%30.07 "HgN/A
9:30 PM54 °FPassing clouds.21 mph77%30.07 "HgN/A
9:00 PM54 °FScattered clouds.21 mph77%30.07 "HgN/A
8:30 PM54 °FScattered clouds.22 mph77%30.07 "HgN/A
8:00 PM55 °FScattered clouds.20 mph72%30.09 "HgN/A
7:30 PM55 °FScattered clouds.22 mph72%30.09 "HgN/A
7:00 PM55 °FScattered clouds.21 mph72%30.07 "HgN/A
6:30 PM57 °FScattered clouds.25 mph67%30.07 "HgN/A
6:00 PM55 °FScattered clouds.23 mph72%30.09 "HgN/A
Weather by CustomWeather, © 2015

See weather overviewHow to use our weather pages